270  
ASUS43 KGLD 060459  
RWRGLD  
 
GOODLAND FORECAST AREA HOURLY WEATHER ROUNDUP  
NATIONAL WEATHER SERVICE GOODLAND KS  
1100 PM MDT SUN JUL 05 2020  
   
..OFFICIAL OBSERVATIONS
 
 
 
CITY SKY/WX TMP DP RH WIND PRES REMARKS
 
GOODLAND KS CLEAR 71 59 65 S8 30.06S  
HILL CITY KS CLEAR 72 68 87 E5 30.02R  
IMPERIAL NEB CLEAR 66 60 81 MISG 30.03F  
MCCOOK NEB CLEAR 70 60 70 SE6 30.02S  
AKRON CO CLEAR 73 52 47 SE10 30.08F  
BURLINGTON CO CLEAR 69 60 73 S10 30.09S  
LIMON CO PTCLDY 65 55 70 SE6 30.14F  

 
   
..UNOFFICIAL OBSERVATIONS
 
 
 
CITY SKY/WX TMP DP RH WIND PRES REMARKS
 
COLBY KS CLEAR 66 57 72 E6 30.07S  
SHARON SPRINGS N/A 68 57 68 S7 N/A  

 
 
 
CLICK HERE TO GO TO PREVIOUS BULLETINS.

The Nexlab KS Page
The Nexlab CO Page
The Nexlab NE Page Main Text Page